Regional Weather Roundup
Issued by NWS

Home | Current Version | Previous Version | Text Only | Print | Product List | Glossary Off
Versions: 1 2 3 4 5 6 7 8 9 10 11 12 13 14 15 16 17 18 19 20 21 22 23 24 25 26 27 28 29 30 31 32 33 34 35 36 37 38 39 40 41 42 43 44 45 46 47 48 49 50

000
ASUS45 KSLC 051410
RWRUT

UTAH REGIONAL WEATHER ROUNDUP
NATIONAL WEATHER SERVICE SALT LAKE CITY UT
700 AM MST THU MAR 05 2015

UTZ001>011-023>025-051500-

NORTHERN UTAH

CITY           SKY/WX    TMP DP  RH WIND       PRES   REMARKS
BRIGHAM CITY   CLEAR     26  17  69 CALM      30.42R
HILL AFB       CLEAR     22  11  61 E16       30.38R WCI   9
LOGAN          CLEAR     21  15  78 CALM      30.40R
OGDEN          CLEAR     23  13  65 S10       30.39R WCI  12
PROVO AIRPORT  CLEAR     21  14  73 CALM      30.41S
SALT LAKE CITY PTCLDY    27  20  75 SE8       30.40R WCI  19
VERNAL         PTCLDY    17   8  67 CALM      30.36R
WENDOVER       PTCLDY    23  18  80 CALM      30.39R
HEBER CITY     CLEAR     10   9  92 CALM      30.41R
WEST JORDAN    CLEAR     28  19  69 S9        30.40R WCI  20

$$

UTZ012>022-026-027-051500-

SOUTHERN/CENTRAL UTAH

CITY           SKY/WX    TMP DP  RH WIND       PRES   REMARKS
BLANDING       PTCLDY    18  12  75 N5        30.42R WCI  11
BRYCE CANYON   MOCLDY    -8 -12  83 W10       30.34S WCI -26
CEDAR CITY     MOCLDY     6   3  87 CALM      30.36R
DELTA          CLEAR     18  15  90 S3        30.40R
HANKSVILLE     CLEAR     23  21  93 CALM      30.41R
MILFORD        CLEAR     19  14  81 S6        30.39R WCI  11
MOAB/CYNLANDS  CLEAR     22  14  71 CALM      30.38R
PRICE          PTCLDY    17   9  70 N6        30.33S WCI   9
ST GEORGE      SUNNY     30  25  80 S3        30.42S
KANAB          PTCLDY    23  12  63 NW16      30.41R WCI  10

$$

REGIONAL REPORTS     COLORADO/ARIZONA

CITY           SKY/WX    TMP DP  RH WIND       PRES   REMARKS
CRAIG, CO      PTCLDY     6  -1  73 CALM      30.36R
GRAND JUNCTION CLEAR     21  10  62 E9        30.40R WCI  11
RIFLE          PTCLDY    15   8  73 S5        30.43R WCI   8
MONTROSE       CLEAR     18   7  62 SE8       30.42R WCI   8
CORTEZ         CLEAR     15   8  73 CALM      30.37R
PAGE, AZ       PTCLDY    30  22  72 S6        30.38R WCI  24
GRAND CANYON   PTCLDY     5   1  83 E5        30.34R WCI  -4
KINGMAN        CLEAR     29  23  78 E6        30.32R WCI  23
FLAGSTAFF      PTCLDY    21   8  57 NE9       30.33R WCI  11

$$

REGIONAL REPORTS    NEVADA/IDAHO/WYOMING

CITY           SKY/WX    TMP DP  RH WIND       PRES   REMARKS
LAS VEGAS, NV  CLEAR     42  28  57 SW8       30.32R
ELY            MOCLDY    13   8  81 S14       30.37R WCI  -2
ELKO           MOCLDY    14   8  77 CALM      30.38R
POCATELLO, ID  CLEAR     21  15  78 CALM      30.36R
EVANSTON, WY   CLEAR     11   4  73 SW12      30.31R WCI  -3
ROCK SPRINGS   PTCLDY    16   6  65 S18       30.25R WCI   0

$$


USA.gov is the U.S. government's official web portal to all federal, state and local government web resources and services.